When you browse on this site, cookies collect data to enhance your experience and personalize the content and advertising you see.
Visit our Privacy Policy to learn more. By continuing to use the site, you agree to this use of cookies and data.
  • In Österreich
  • Länderverzeichnis
  • Für 7 Tage
  • Wassertemperatur
  • Satellitenkarten
  • Wetterkarte
  • News
  • Widgets
  • user-avatar
    Anmelden

    Stündliche Wetter Bocas del Toro

    Heute, 11 Dezember, Dienstag

    Zeit Temperatur Niederschläge Wind Luftdruck Luftfeuchtigkeit
    00:00 +25°C° 0.3 mm 3 m/S 760 mmHg 72%
    01:00 +25°C° 0.3 mm 3 m/S 760 mmHg 73%
    02:00 +25°C° 0.1 mm 3 m/S 760 mmHg 76%
    03:00 +25°C° 0.1 mm 4 m/S 760 mmHg 79%
    04:00 +23°C° 0.1 mm 4 m/S 760 mmHg 82%
    05:00 +23°C° 0 mm 4 m/S 760 mmHg 79%
    06:00 +23°C° 0 mm 4 m/S 760 mmHg 75%
    07:00 +23°C° 0 mm 4 m/S 760 mmHg 72%
    08:00 +27°C° 0 mm 4 m/S 761 mmHg 62%
    09:00 +30°C° 0 mm 3 m/S 761 mmHg 53%
    10:00 +34°C° 0 mm 3 m/S 762 mmHg 43%
    11:00 +34°C° 0.1 mm 3 m/S 761 mmHg 42%
    12:00 +35°C° 0.1 mm 3 m/S 761 mmHg 42%
    13:00 +36°C° 0.1 mm 3 m/S 760 mmHg 41%
    14:00 +35°C° 0.1 mm 3 m/S 760 mmHg 44%
    15:00 +34°C° 0.1 mm 3 m/S 759 mmHg 47%
    16:00 +34°C° 0.1 mm 4 m/S 759 mmHg 49%
    17:00 +31°C° 0.4 mm 3 m/S 759 mmHg 58%
    18:00 +28°C° 0.4 mm 3 m/S 759 mmHg 66%
    19:00 +26°C° 0.4 mm 3 m/S 760 mmHg 74%
    20:00 +26°C° 0.6 mm 3 m/S 760 mmHg 70%
    21:00 +26°C° 0.6 mm 3 m/S 761 mmHg 65%
    22:00 +25°C° 0.6 mm 3 m/S 761 mmHg 61%
    23:00 +25°C° 0.2 mm 3 m/S 761 mmHg 64%

    Morgen, 12 Dezember, Mittwoch

    Zeit Temperatur Niederschläge Wind Luftdruck Luftfeuchtigkeit
    00:00 +25°C° 0.2 mm 3 m/S 761 mmHg 67%
    01:00 +25°C° 0.2 mm 3 m/S 761 mmHg 70%
    02:00 +25°C° 0.1 mm 3 m/S 760 mmHg 74%
    03:00 +25°C° 0.1 mm 3 m/S 760 mmHg 79%
    04:00 +25°C° 0.1 mm 4 m/S 760 mmHg 83%
    05:00 +25°C° 0.1 mm 3 m/S 760 mmHg 83%
    06:00 +25°C° 0.1 mm 3 m/S 760 mmHg 82%
    07:00 +25°C° 0.1 mm 3 m/S 760 mmHg 82%
    08:00 +27°C° 0.1 mm 3 m/S 761 mmHg 72%
    09:00 +30°C° 0.1 mm 3 m/S 761 mmHg 63%
    10:00 +32°C° 0.1 mm 2 m/S 761 mmHg 53%
    11:00 +34°C° 0 mm 3 m/S 761 mmHg 52%
    12:00 +34°C° 0 mm 3 m/S 760 mmHg 50%
    13:00 +35°C° 0 mm 3 m/S 760 mmHg 49%
    14:00 +34°C° 0 mm 3 m/S 759 mmHg 49%
    15:00 +34°C° 0 mm 3 m/S 759 mmHg 49%
    16:00 +33°C° 0 mm 3 m/S 758 mmHg 49%
    17:00 +30°C° 0.1 mm 3 m/S 758 mmHg 58%
    18:00 +28°C° 0.1 mm 2 m/S 759 mmHg 67%
    19:00 +25°C° 0.1 mm 2 m/S 759 mmHg 77%
    20:00 +25°C° 0.2 mm 2 m/S 759 mmHg 71%
    21:00 +25°C° 0.2 mm 2 m/S 760 mmHg 65%
    22:00 +25°C° 0.2 mm 2 m/S 761 mmHg 60%
    23:00 +25°C° 0.1 mm 3 m/S 760 mmHg 54%

    übermorgen, 13 Dezember, Donnerstag

    Zeit Temperatur Niederschläge Wind Luftdruck Luftfeuchtigkeit
    00:00 +25°C° 0.1 mm 3 m/S 760 mmHg 47%
    01:00 +25°C° 0.1 mm 3 m/S 760 mmHg 41%
    02:00 +25°C° 0.1 mm 3 m/S 760 mmHg 49%
    03:00 +25°C° 0.1 mm 3 m/S 759 mmHg 57%
    04:00 +25°C° 0.1 mm 3 m/S 759 mmHg 66%
    05:00 +25°C° 0 mm 3 m/S 759 mmHg 72%
    06:00 +25°C° 0 mm 3 m/S 759 mmHg 78%
    07:00 +25°C° 0 mm 3 m/S 760 mmHg 84%
    08:00 +28°C° 0 mm 3 m/S 760 mmHg 74%
    09:00 +30°C° 0 mm 3 m/S 760 mmHg 63%
    10:00 +34°C° 0 mm 2 m/S 761 mmHg 52%
    11:00 +34°C° 0 mm 3 m/S 760 mmHg 51%
    12:00 +35°C° 0 mm 3 m/S 760 mmHg 50%
    13:00 +36°C° 0 mm 3 m/S 759 mmHg 49%
    14:00 +35°C° 0.4 mm 3 m/S 759 mmHg 54%
    15:00 +34°C° 0.4 mm 3 m/S 758 mmHg 59%
    16:00 +33°C° 0.4 mm 3 m/S 758 mmHg 64%
    17:00 +30°C° 0.7 mm 3 m/S 758 mmHg 72%
    18:00 +28°C° 0.7 mm 2 m/S 758 mmHg 80%
    19:00 +27°C° 0.7 mm 2 m/S 759 mmHg 88%
    20:00 +27°C° 0.3 mm 2 m/S 759 mmHg 87%
    21:00 +26°C° 0.3 mm 2 m/S 760 mmHg 86%
    22:00 +26°C° 0.3 mm 2 m/S 760 mmHg 85%
    23:00 +26°C° 0 mm 2 m/S 760 mmHg 80%

    14 Dezember, Freitag

    Zeit Temperatur Niederschläge Wind Luftdruck Luftfeuchtigkeit
    00:00 +26°C° 0 mm 2 m/S 759 mmHg 76%
    01:00 +26°C° 0 mm 3 m/S 759 mmHg 72%
    02:00 +26°C° 0 mm 3 m/S 759 mmHg 72%
    03:00 +26°C° 0 mm 3 m/S 758 mmHg 72%
    04:00 +26°C° 0 mm 3 m/S 758 mmHg 72%
    05:00 +26°C° 0.1 mm 3 m/S 759 mmHg 73%
    06:00 +26°C° 0.1 mm 3 m/S 759 mmHg 74%
    07:00 +26°C° 0.1 mm 3 m/S 759 mmHg 75%
    08:00 +28°C° 0.1 mm 3 m/S 760 mmHg 68%
    09:00 +31°C° 0.1 mm 3 m/S 760 mmHg 61%
    10:00 +34°C° 0.1 mm 3 m/S 760 mmHg 55%
    11:00 +35°C° 0 mm 3 m/S 760 mmHg 54%
    12:00 +35°C° 0 mm 3 m/S 759 mmHg 53%
    13:00 +36°C° 0 mm 4 m/S 759 mmHg 53%
    14:00 +35°C° 0.7 mm 4 m/S 758 mmHg 56%
    15:00 +34°C° 0.7 mm 4 m/S 757 mmHg 59%
    16:00 +34°C° 0.7 mm 4 m/S 757 mmHg 62%
    17:00 +31°C° 0.9 mm 3 m/S 757 mmHg 71%
    18:00 +29°C° 0.9 mm 3 m/S 758 mmHg 80%
    19:00 +27°C° 0.9 mm 2 m/S 758 mmHg 88%
    20:00 +27°C° 1.1 mm 2 m/S 759 mmHg 86%
    21:00 +27°C° 1.1 mm 3 m/S 759 mmHg 84%
    22:00 +27°C° 1.1 mm 3 m/S 760 mmHg 82%
    23:00 +27°C° 0.2 mm 3 m/S 760 mmHg 77%

    15 Dezember, Samstag

    Zeit Temperatur Niederschläge Wind Luftdruck Luftfeuchtigkeit
    00:00 +27°C° 0.2 mm 3 m/S 760 mmHg 73%
    01:00 +27°C° 0.2 mm 3 m/S 759 mmHg 69%
    02:00 +26°C° 0.1 mm 4 m/S 759 mmHg 69%
    03:00 +26°C° 0.1 mm 4 m/S 759 mmHg 70%
    04:00 +26°C° 0.1 mm 4 m/S 759 mmHg 70%
    05:00 +26°C° 0.3 mm 3 m/S 759 mmHg 73%
    06:00 +26°C° 0.3 mm 3 m/S 759 mmHg 75%
    07:00 +26°C° 0.3 mm 3 m/S 760 mmHg 78%
    08:00 +28°C° 0.5 mm 3 m/S 760 mmHg 71%
    09:00 +30°C° 0.5 mm 3 m/S 760 mmHg 64%
    10:00 +33°C° 0.5 mm 3 m/S 761 mmHg 58%
    11:00 +34°C° 0.5 mm 3 m/S 760 mmHg 56%
    12:00 +34°C° 0.5 mm 3 m/S 760 mmHg 54%
    13:00 +35°C° 0.5 mm 4 m/S 759 mmHg 52%
    14:00 +34°C° 0.8 mm 3 m/S 759 mmHg 55%
    15:00 +34°C° 0.8 mm 3 m/S 758 mmHg 57%
    16:00 +33°C° 0.8 mm 3 m/S 758 mmHg 60%
    17:00 +30°C° 0.4 mm 3 m/S 758 mmHg 66%
    18:00 +28°C° 0.4 mm 3 m/S 759 mmHg 71%
    19:00 +26°C° 0.4 mm 3 m/S 760 mmHg 77%
    20:00 +26°C° 0.2 mm 3 m/S 760 mmHg 73%
    21:00 +26°C° 0.2 mm 3 m/S 761 mmHg 69%
    22:00 +26°C° 0.2 mm 4 m/S 761 mmHg 65%
    23:00 +25°C° 0.1 mm 4 m/S 761 mmHg 67%

    16 Dezember, Sonntag

    Zeit Temperatur Niederschläge Wind Luftdruck Luftfeuchtigkeit
    00:00 +25°C° 0.1 mm 4 m/S 760 mmHg 69%
    01:00 +25°C° 0.1 mm 4 m/S 760 mmHg 71%
    02:00 +25°C° 0 mm 4 m/S 760 mmHg 69%
    03:00 +25°C° 0 mm 4 m/S 759 mmHg 67%
    04:00 +25°C° 0 mm 4 m/S 759 mmHg 65%
    05:00 +25°C° 0.1 mm 4 m/S 760 mmHg 64%
    06:00 +25°C° 0.1 mm 4 m/S 760 mmHg 64%
    07:00 +25°C° 0.1 mm 4 m/S 760 mmHg 64%
    08:00 +28°C° 0.1 mm 4 m/S 761 mmHg 61%
    09:00 +30°C° 0.1 mm 4 m/S 761 mmHg 59%
    10:00 +33°C° 0.1 mm 4 m/S 761 mmHg 57%
    11:00 +34°C° 0.1 mm 4 m/S 760 mmHg 55%
    12:00 +34°C° 0.1 mm 4 m/S 760 mmHg 54%
    13:00 +34°C° 0.1 mm 4 m/S 759 mmHg 53%
    14:00 +34°C° 0.5 mm 4 m/S 759 mmHg 53%
    15:00 +34°C° 0.5 mm 4 m/S 758 mmHg 54%
    16:00 +34°C° 0.5 mm 4 m/S 758 mmHg 54%
    17:00 +32°C° 1.3 mm 4 m/S 758 mmHg 61%
    18:00 +29°C° 1.3 mm 4 m/S 759 mmHg 69%
    19:00 +27°C° 1.3 mm 3 m/S 759 mmHg 76%
    20:00 +27°C° 1.4 mm 3 m/S 759 mmHg 76%
    21:00 +27°C° 1.4 mm 3 m/S 760 mmHg 75%
    22:00 +26°C° 1.4 mm 3 m/S 760 mmHg 75%
    23:00 +26°C° 0.6 mm 3 m/S 760 mmHg 76%
    Mehr zeigen